SCP
0 0 0 0 0 0 0 0 0 0 0 0 0 0 0 0 0 0 1 1 1 1 1 1 1 1 1 1 1 1 1 1 1 1 1 1 1 1 1 1 1 0 0 0
0 0 0 0 0 0 0 0 0 0 0 0 0 0 0 0 0 0 1 1 1 1 1 1 1 1 1 1 1 1 1 1 1 1 1 1 1 1 1 1 0 0 0 0
0 0 0 0 0 0 0 0 0 0 0 0 0 0 0 0 0 0 1 1 1 1 1 1 1 1 1 1 1 1 1 1 1 1 1 1 1 1 1 1 0 0 0 0
0 0 0 0 0 0 0 0 0 0 0 0 0 0 0 0 0 0 1 1 1 1 1 1 1 1 1 1 1 1 1 1 1 1 1 1 1 1 1 0 0 0 0 0
0 0 0 0 0 0 0 0 0 0 0 0 0 0 0 0 0 0 0 0 0 1 1 1 1 1 1 1 1 1 1 1 1 1 1 1 1 1 1 0 0 0 0 0
0 0 0 0 0 0 0 0 0 0 0 0 0 0 0 0 0 0 0 0 0 1 1 1 1 1 1 1 1 1 1 1 1 1 1 1 1 1 0 0 0 0 0 0
0 0 0 0 0 0 0 0 0 0 0 0 0 0 0 0 0 0 0 0 0 1 1 1 1 1 1 1 1 1 1 1 1 1 1 1 1 1 0 0 0 0 0 0
0 0 0 0 0 0 0 0 0 0 0 0 0 0 0 0 0 0 0 0 0 0 1 1 1 1 1 1 1 1 1 1 1 1 1 1 1 0 0 0 0 0 0 0
0 0 0 0 0 0 0 0 0 0 0 0 0 0 0 0 0 0 0 0 0 0 0 1 1 1 1 1 1 1 1 1 1 1 0 0 0 0 0 0 0 0 0 0
0 0 0 0 0 0 0 0 0 0 0 0 0 0 0 0 0 0 0 0 0 0 0 1 1 1 1 1 1 1 1 1 0 0 0 0 0 0 0 0 0 0 0 0
0 0 0 0 0 0 0 0 0 0 0 0 0 0 0 0 0 0 0 0 0 0 0 1 1 1 1 1 1 1 1 0 0 0 0 0 0 0 0 0 0 0 0 0
0 0 0 0 0 0 0 0 0 0 0 0 0 0 0 0 0 0 0 0 0 0 1 1 1 1 1 1 1 1 0 0 0 0 0 0 0 0 0 0 0 0 0 0
0 0 0 0 0 0 0 0 0 0 0 0 0 0 0 0 1 1 0 0 1 1 1 1 1 1 1 1 1 0 0 0 0 0 0 0 0 0 0 0 0 0 0 0
0 0 0 0 0 0 0 0 0 0 0 0 0 0 0 1 1 1 1 1 1 1 1 1 1 1 1 1 1 0 0 0 0 0 0 0 0 0 0 0 0 0 0 0
0 0 0 0 0 0 0 0 0 0 0 0 0 0 1 1 1 0 0 1 1 1 1 1 1 1 1 1 0 0 0 0 0 0 0 0 0 0 0 0 0 0 0 0
0 0 0 0 0 0 0 0 0 0 0 0 0 0 1 1 1 0 0 0 1 1 1 1 1 1 1 1 1 0 0 0 0 0 0 0 0 0 0 0 0 0 0 0
0 0 0 0 0 0 0 0 0 0 0 0 0 0 1 1 1 0 0 0 1 1 1 1 1 1 1 1 1 0 0 0 0 0 0 0 0 0 0 0 0 0 0 0
0 0 0 0 0 0 0 0 0 0 0 0 0 0 1 1 1 0 0 0 1 1 1 1 1 1 1 1 1 0 0 0 0 0 0 0 0 0 0 0 0 0 0 0
0 0 0 0 0 0 0 0 0 0 0 0 0 1 1 1 0 0 0 0 1 1 1 1 1 1 1 1 1 0 0 0 0 0 0 0 0 0 0 0 0 0 0 0
0 0 0 0 0 0 0 0 0 0 0 0 0 1 1 0 0 0 0 0 1 1 1 1 1 1 1 1 1 0 0 0 0 0 0 0 0 0 0 0 0 0 0 0
0 0 0 0 0 0 0 0 0 0 0 0 0 0 0 0 0 0 1 1 1 1 1 1 1 1 1 1 1 0 0 0 0 0 0 0 0 0 0 0 0 0 0 0
0 0 0 0 0 0 0 0 0 0 0 0 0 1 0 0 0 1 1 1 1 1 1 1 1 1 1 1 1 0 0 0 0 0 0 0 0 0 0 0 0 0 0 0
0 0 0 0 0 0 0 0 0 0 0 0 0 0 0 0 0 1 1 1 1 1 1 1 1 1 1 1 1 1 0 0 0 0 0 0 0 0 0 0 0 0 0 0
0 0 0 0 0 0 0 0 0 0 0 0 0 0 0 0 0 0 1 1 1 1 1 0 0 0 1 1 1 1 1 0 0 0 0 0 0 0 0 0 0 0 0 0
0 0 0 0 0 0 0 0 0 0 0 0 0 0 0 0 0 0 0 1 0 0 0 0 0 0 0 1 1 1 1 1 0 0 0 0 0 0 0 0 0 0 0 0
0 0 0 0 0 0 0 0 0 0 0 0 0 0 0 0 0 0 0 0 0 0 0 0 0 0 0 1 1 1 1 1 1 0 0 0 0 0 0 0 0 0 0 0
Wind_Speed
12 11 12 10 11 11 10 8 7 7 7 6 7 6 7 9 9 8 8 8 8 8 8 7 6 6 5 5 5 3 2 2 1 1 0 0 0 1 1 1 1 0 1 2
11 14 14 11 10 11 10 11 10 8 9 5 5 5 5 7 8 7 7 7 7 7 7 7 6 5 5 5 4 4 3 2 1 1 1 1 0 1 0 1 0 1 1 2
12 11 11 12 12 12 11 11 10 8 7 6 7 7 6 6 5 6 6 5 6 8 8 7 5 5 5 4 4 3 3 2 1 1 0 0 0 0 1 1 0 1 2 1
12 11 11 12 12 12 10 10 8 8 8 8 9 7 6 6 5 5 6 6 6 6 8 7 6 5 4 4 4 4 3 3 1 1 0 1 0 1 1 1 1 2 2 2
11 10 11 12 11 10 10 9 10 10 10 10 9 6 3 7 7 7 7 7 6 6 7 7 6 5 4 4 4 4 4 3 2 1 1 0 1 1 1 1 1 2 2 1
13 11 12 11 10 10 10 11 12 10 9 9 7 5 2 4 6 7 7 7 5 5 5 6 6 5 4 4 4 4 4 3 2 1 1 1 0 1 1 1 1 1 1 1
13 12 12 12 11 10 9 8 7 7 6 7 4 3 1 4 7 6 6 6 6 4 4 5 5 5 5 5 4 4 4 3 2 2 1 1 0 1 1 1 1 1 1 1
10 9 9 9 9 7 7 8 6 8 8 6 3 2 4 3 7 8 7 7 6 4 4 5 5 5 5 5 4 4 3 3 2 2 1 1 0 1 1 1 1 1 1 1
8 8 7 6 7 7 7 7 7 8 11 10 2 3 6 6 6 6 6 7 6 5 5 5 5 6 6 5 4 4 3 3 2 2 2 2 1 0 0 0 1 1 1 1
8 9 8 6 8 10 9 8 4 6 7 7 4 1 3 5 5 5 5 6 5 4 5 5 5 6 6 5 5 4 4 3 2 2 2 2 1 0 0 1 1 1 2 2
8 8 9 8 9 8 6 8 7 6 6 5 5 1 4 4 4 4 5 6 5 4 5 5 6 6 6 5 5 5 4 3 3 2 2 2 1 1 1 1 2 2 1 1
5 6 9 11 8 8 8 8 7 6 6 5 5 1 4 5 5 5 5 5 5 4 4 6 6 6 6 5 5 5 4 3 3 3 3 2 1 1 1 1 1 1 1 1
4 4 8 8 6 6 7 8 8 7 5 6 6 2 5 6 6 5 6 5 5 5 5 6 6 5 5 5 4 4 3 3 3 3 3 3 2 1 1 1 1 1 1 1
4 5 8 9 8 7 7 9 9 8 6 6 4 4 5 6 6 5 5 5 5 5 5 6 6 5 4 4 4 4 3 3 3 3 3 3 2 1 0 0 0 1 1 1
4 7 9 11 12 12 11 10 9 8 8 7 4 2 4 3 5 6 5 5 5 5 5 5 5 4 4 4 4 3 3 3 3 3 3 2 2 1 1 0 1 1 1 2
3 6 8 11 12 12 12 11 9 8 9 6 5 1 4 5 4 4 4 4 4 4 4 5 5 5 4 4 3 3 3 3 3 3 2 2 2 2 1 1 1 1 1 2
5 5 8 10 11 12 11 10 8 6 5 4 2 3 5 4 4 4 3 3 4 3 4 5 5 4 4 4 3 2 3 3 3 3 3 2 1 1 1 1 1 1 1 1
7 7 6 9 10 12 6 3 3 3 2 4 3 3 3 4 4 4 4 4 4 3 4 4 4 4 4 4 3 2 2 2 2 2 2 2 1 1 1 1 1 1 1 1
7 6 6 7 9 9 6 3 3 3 0 3 3 4 4 5 4 5 5 3 3 4 4 3 3 4 5 4 3 3 2 2 2 2 2 1 1 2 1 1 1 1 1 1
7 6 7 8 10 9 3 4 4 3 2 4 5 4 3 2 1 3 3 3 4 4 4 3 3 3 5 4 4 3 2 2 2 2 2 2 2 1 1 1 0 0 1 1
6 7 9 9 9 5 4 5 3 3 2 4 4 4 3 3 3 3 3 3 3 4 4 3 3 2 3 5 4 3 2 2 2 2 2 1 1 2 1 1 1 1 1 1
5 5 7 7 8 4 7 6 5 5 4 4 4 4 4 4 4 3 3 3 3 3 3 3 2 2 2 4 4 3 3 2 2 2 2 1 0 1 1 1 1 2 1 1
4 4 3 3 1 4 5 5 4 3 3 3 3 3 3 3 2 2 2 2 1 2 2 2 2 2 2 3 4 4 3 3 2 2 2 2 1 1 1 1 2 1 0 1
3 4 3 2 1 2 3 3 4 4 2 2 2 2 2 1 2 2 1 0 1 1 1 1 2 2 2 2 4 4 4 3 3 2 2 2 2 2 2 2 1 1 1 1
7 5 4 3 2 3 3 4 4 4 3 2 2 2 2 1 1 0 1 0 1 1 1 2 2 2 2 3 3 4 4 4 3 3 3 3 3 3 2 2 1 1 1 0
6 5 4 3 3 3 4 4 4 4 4 2 3 3 2 2 1 1 1 1 1 2 2 2 2 3 3 3 3 4 4 4 4 3 3 3 3 3 3 3 2 1 2 2
Wind_Direction
224 231 240 237 238 254 270 273 267 274 253 237 236 224 181 168 181 175 163 160 158 155 146 139 142 142 138 134 138 142 135 137 136 124 267 226 220 267 263 130 99 2 318 318
226 230 242 252 253 256 265 277 272 265 254 245 255 244 187 175 185 177 170 161 160 152 138 132 138 144 147 147 154 160 155 154 160 169 227 226 272 259 185 77 112 322 317 314
236 237 238 244 247 250 255 259 260 263 274 260 250 244 213 181 180 169 158 156 161 152 147 146 148 151 155 158 163 157 149 146 151 211 155 17 280 297 32 5 5 310 300 312
246 247 252 253 249 255 258 263 263 264 266 258 237 246 210 171 170 177 161 164 164 158 152 152 155 161 164 160 152 142 146 138 142 136 84 319 324 357 349 342 350 323 310 308
250 248 249 253 256 261 268 276 278 270 267 271 265 263 209 161 176 179 180 171 166 161 155 156 162 162 166 160 150 144 136 140 137 149 157 280 6 356 355 354 352 327 320 313
255 249 254 258 260 263 273 281 280 271 270 269 280 284 235 179 171 170 168 159 151 151 149 154 155 154 155 147 142 141 137 138 142 144 132 120 355 312 314 332 336 328 327 327
248 239 240 248 250 255 265 273 282 275 264 264 255 263 177 147 146 148 141 137 134 152 147 146 155 158 155 143 139 131 129 145 156 148 135 131 268 254 260 309 306 323 321 330
260 245 235 240 251 265 268 272 273 289 290 287 263 208 133 128 111 109 116 123 141 155 146 150 150 148 147 140 130 131 134 148 158 143 136 153 231 275 42 359 327 298 301 317
274 271 265 241 245 251 264 267 279 282 284 285 272 130 125 129 121 119 133 135 143 143 144 138 133 135 135 135 132 138 139 148 162 150 160 163 178 271 6 299 302 332 320 332
278 283 275 263 248 234 241 267 268 269 278 289 288 206 146 148 137 141 128 120 121 136 136 130 130 128 129 133 132 130 136 153 167 156 176 146 170 207 56 34 34 19 356 9
279 275 273 264 258 269 254 260 265 273 283 287 294 10 133 145 138 132 121 113 122 132 131 129 131 130 128 128 131 134 142 151 154 146 124 101 106 71 52 50 44 35 359 342
296 296 285 277 277 280 274 272 270 275 281 289 291 65 94 105 113 118 108 109 114 117 120 122 126 132 133 135 136 137 146 152 148 133 123 112 101 78 52 32 25 11 3 344
311 279 273 263 258 272 277 273 269 265 271 270 271 156 122 121 123 112 106 110 110 111 113 118 124 125 134 141 137 136 138 134 132 127 123 114 109 98 72 35 352 336 352 336
274 268 275 285 299 300 285 284 282 277 271 274 270 164 156 152 139 122 115 113 116 119 121 123 123 124 131 136 135 135 135 132 126 123 121 126 131 127 149 97 350 343 355 344
276 267 272 280 280 281 280 280 282 279 276 275 265 203 159 147 138 131 132 131 129 130 124 122 126 129 132 130 133 130 129 126 124 122 124 131 140 158 159 97 38 23 9 358
256 273 282 279 279 280 283 279 276 282 286 275 271 119 108 95 106 128 135 137 134 134 135 130 127 126 124 125 129 131 135 134 136 137 140 139 160 161 134 127 91 43 10 1
257 255 271 273 279 280 271 274 273 270 285 285 286 102 112 102 96 86 85 112 117 114 119 127 131 129 125 123 121 133 136 141 150 144 139 139 158 146 116 66 64 34 11 351
260 273 269 268 273 263 270 298 305 290 333 33 69 90 99 89 95 92 84 91 102 107 101 108 122 132 132 132 136 142 139 148 150 140 135 142 147 108 110 93 63 27 21 359
227 245 264 268 266 263 261 292 307 278 212 60 78 87 86 85 109 104 71 76 89 100 98 104 121 143 142 141 141 141 143 140 147 135 132 132 108 96 89 80 59 29 8 327
214 210 244 261 270 273 342 359 346 295 204 64 72 78 83 98 175 106 68 60 76 85 93 101 111 136 144 144 149 163 160 153 154 145 133 130 130 121 117 83 14 345 306 297
232 221 233 255 263 272 21 2 325 281 35 49 62 68 73 62 45 80 96 76 77 93 100 103 109 123 146 147 155 169 161 160 161 149 130 126 147 152 145 139 255 259 260 266
258 256 240 248 255 260 24 20 24 42 42 44 54 49 60 69 68 67 85 86 89 101 112 115 120 125 141 153 157 163 167 162 158 151 139 125 152 215 161 180 233 253 264 262
271 295 302 317 347 51 41 40 55 47 39 46 53 40 42 70 64 51 63 95 99 119 126 138 148 145 141 166 172 178 180 175 172 163 161 161 181 212 191 209 228 221 264 281
304 325 310 315 25 24 31 25 26 19 41 50 44 22 13 46 55 43 13 75 133 131 151 160 169 179 180 192 189 181 180 180 183 185 187 190 195 202 188 218 205 186 230 275
311 312 304 292 318 331 7 2 352 354 10 24 13 355 342 3 31 7 308 231 189 188 196 190 191 196 205 209 203 192 184 180 190 201 210 211 203 201 187 186 207 186 100 61
307 310 305 308 340 325 325 325 339 343 331 352 343 331 326 305 285 279 271 256 230 226 219 207 205 216 222 222 214 199 188 189 195 208 220 224 210 195 195 187 174 113 167 178